Location: Stonelick Lake State Park
(39.2170°N, 84.0850°W)
Time: 18:25:23
(UTC-04:00)

Daily predictions for brighter satellites

Satellite Brightness Start Highest point End
(mag) Time Altitude Azimuth Time Altitude Azimuth Time Altitude Azimuth
COSMO-SKYMED 1 2.7 19:45:34 10° N 19:49:56 84° WNW 19:54:15 10° SSW
BREEZE M DEB (TANK) 4.4 19:39:04 10° WSW 19:50:13 45° NNW 19:53:41 10° NE
Thor Agena Rocket 3.8 19:48:52 10° NNE 19:53:53 46° E 19:58:49 10° S
ISS -2.2 19:52:20 10° S 19:54:42 19° SE 19:57:05 10° E
Cosmos 1758 Rocket 3.6 19:50:19 10° N 19:54:50 75° E 19:59:19 10° SSE
Cosmos 2084 3.8 19:50:56 10° SW 19:55:01 65° NW 19:58:54 10° NNE
Cosmos 1726 Rocket 3.5 19:52:54 10° S 19:57:15 83° E 20:01:37 10° N
DMSP B5D1-3 4.5 19:52:42 10° NNE 19:57:47 69° ESE 20:02:51 10° S
USA 234 3.6 19:53:03 10° SE 19:59:34 73° SW 20:06:09 10° NW
CZ-4 R/B 3.9 19:56:23 10° SSW 19:59:57 28° W 20:03:36 10° NW
ALOS 2.3 19:57:02 10° SSE 20:01:39 64° ENE 20:06:17 10° N
BREEZE M DEB (TANK) 4.0 19:54:16 10° WNW 20:03:13 49° NNE 20:06:19 11° E
Cosmos 2181 Rocket 4.0 19:57:54 10° N 20:04:08 82° E 20:10:14 10° S
Cosmos 1814 Rocket 4.4 20:00:34 10° SSW 20:05:42 67° WNW 20:10:50 10° NNE
Cosmos 990 Rocket 4.0 20:00:46 10° NNW 20:05:56 85° WSW 20:11:04 10° SSE
Cosmos 1898 Rocket 4.4 20:01:11 10° NNW 20:06:13 52° WSW 20:11:12 10° S
NOAA 12 4.1 20:01:24 10° SSE 20:06:38 82° ENE 20:11:55 10° NNW
SJ 16-02 3.0 20:04:09 10° NNE 20:06:52 16° ENE 20:09:12 11° E
Cosmos 1656 Rocket 3.7 20:01:43 10° NNW 20:07:21 66° ENE 20:12:51 10° SSE
SJ-6B 3.7 20:04:15 10° SE 20:07:45 30° ENE 20:11:13 10° N
SPOT 3 Rocket 4.0 20:03:04 10° S 20:08:10 66° WSW 20:13:19 10° NNW
FENGYUN 3A 3.6 20:04:58 10° SSE 20:10:19 75° ENE 20:15:42 10° N
Cosmos 1953 4.1 20:11:48 12° E 20:12:00 12° E 20:13:40 10° ENE
H-2A R/B 3.2 20:09:25 10° SE 20:12:52 38° ENE 20:16:22 10° N
Cosmos 2074 Rocket 4.0 20:08:10 10° SSE 20:14:11 56° E 20:20:15 10° NNE
Cosmos 1125 Rocket 4.2 20:12:00 10° N 20:16:52 35° ENE 20:21:43 10° SE
FREGAT/IRIS 2.6 20:16:17 10° SSE 20:19:15 56° ENE 20:22:14 10° N
Cosmos 2228 3.1 20:14:58 10° S 20:19:20 85° W 20:23:41 10° N
Cosmos 1356 Rocket 3.4 20:18:39 10° N 20:22:58 67° E 20:27:14 10° SSE
Geosat 4.0 20:18:35 10° SE 20:23:34 72° ENE 20:28:35 10° NNW
Envisat 4.2 20:21:01 14° ESE 20:23:44 22° ENE 20:27:33 10° NNE
Cosmos 1544 3.3 20:21:32 10° SSE 20:24:59 43° E 20:28:25 10° NNE
ATLAS 2AS CENTAUR R/B 4.3 20:25:41 10° NNW 20:31:57 24° NE 20:36:22 15° ENE
COSMOS 2406 3.2 20:26:47 10° SSW 20:32:29 82° ESE 20:38:15 10° NNE
Meteor 1-22 Rocket 4.1 20:27:39 10° S 20:33:21 76° E 20:38:50 10° NNE
Cosmos 1378 4.3 20:29:52 10° NNW 20:33:30 46° W 20:37:06 10° SSW
Cosmos 1707 4.1 20:29:50 10° NNW 20:33:33 42° W 20:37:16 10° SSW
Cosmos 1766 3.1 20:32:44 10° S 20:36:38 79° E 20:40:34 10° N
Meteor 2-5 Rocket 4.3 20:31:23 10° NNW 20:37:10 65° W 20:42:47 10° S
Cosmos 1812 Rocket 3.8 20:33:22 10° SSE 20:37:37 46° E 20:41:55 10° NNE
Cosmos 841 Rocket 4.4 20:34:16 10° SW 20:39:15 51° WNW 20:44:16 10° N
Meteor 2-8 Rocket 4.4 20:33:30 10° N 20:39:33 60° E 20:45:33 10° SSE
Resurs 01 Rocket 2.3 20:38:07 21° ESE 20:40:19 34° ENE 20:44:19 10° N
In-Cosmos 22 4.2 20:34:51 10° N 20:40:34 70° E 20:46:19 10° SSE
NOSS 3-1 (A) 4.1 20:34:24 10° NNW 20:42:10 87° ENE 20:50:40 10° SSE
Cosmos 1674 4.1 20:39:34 10° NNE 20:41:52 21° ENE 20:41:52 21° ENE
GP-B 3.6 20:38:52 10° NNE 20:42:59 37° E 20:46:08 16° SSE
MOS 1-B Rocket 4.4 20:40:08 15° SE 20:44:40 40° ENE 20:49:54 10° N
Nadezhda 3 Rocket 4.3 20:38:41 10° N 20:44:43 45° ENE 20:50:14 12° SSE
FengYun 1-2 T 4.3 20:41:21 10° SSE 20:46:57 84° WSW 20:52:34 10° NNW
SL-27 R/B 2.6 20:46:39 10° S 20:50:08 51° ESE 20:53:42 10° NNE
NOSS 3-1 (C) 4.5 20:42:27 10° NW 20:50:09 67° WSW 20:58:33 10° SSE
Meteor 2-19 Rocket 4.3 20:44:47 10° S 20:50:45 65° E 20:56:45 10° NNE
Cosmos 540 Rocket 3.5 20:46:58 10° SSW 20:52:04 80° WNW 20:57:12 10° NNE
Cosmos 2184 Rocket 4.3 20:46:50 10° SSW 20:53:07 74° W 20:59:31 10° N
Cosmos 1758 3.4 20:52:38 10° S 20:56:31 50° E 21:00:24 10° NNE
Elektron 1 4.2 20:54:35 10° NNW 20:57:32 42° NE 20:57:32 42° NE
HJ-1C 3.8 20:54:37 10° S 20:57:56 62° W 21:01:17 10° NNW
Cosmos 1610 Rocket 4.5 20:52:00 10° S 20:58:22 85° E 21:04:48 10° N
Cosmos 1805 3.4 21:04:35 10° SSW 21:08:28 73° W 21:12:22 10° N
Okean 3 Rocket 4.2 21:04:31 10° N 21:08:04 36° ENE 21:08:04 36° ENE
Cosmos 1939 Rocket 4.1 21:13:42 26° NNE 21:13:42 26° NNE 21:15:54 10° N
SL-8 Rocket 4.4 21:14:55 38° E 21:14:55 38° E 21:20:26 10° NNE
CZ-2D R/B 3.4 21:13:42 34° S 21:15:15 71° W 21:19:05 10° NNW
Cosmos 292 Rocket 3.6 21:11:05 10° SSW 21:15:55 80° ESE 21:20:47 10° NNE
Cosmos 2278 4.2 21:14:31 10° N 21:19:50 40° ENE 21:20:04 40° ENE
Spot 2 Rocket 3.4 21:28:02 41° S 21:29:52 83° WSW 21:34:56 10° NNW
ISS -2.3 21:27:49 10° WSW 21:30:17 37° WNW 21:30:17 37° WNW
Milstar 3 Cent rocket 3.4 21:27:25 10° SW 21:30:39 22° S 21:30:39 22° S
Cosmos 962 Rocket 4.4 21:26:49 10° S 21:33:11 90° NE 21:39:35 10° N
Cosmos 1656 4.2 21:30:58 10° N 21:35:48 43° NE 21:35:48 43° NE
Cosmos 1697 Rocket 3.8 21:34:31 10° N 21:38:32 31° NE 21:38:32 31° NE
Cosmos 1980 Rocket 3.9 21:37:07 10° N 21:39:52 19° NNE 21:39:52 19° NNE
SJ 16-02 2.2 21:41:32 10° NNW 21:45:43 44° WSW 21:46:14 42° WSW
Cosmos 1953 3.4 21:47:22 40° WSW 21:47:58 43° W 21:51:52 10° N
Gblst 52 Del rocket 4.5 21:40:59 10° NW 21:48:26 88° SW 21:49:25 68° SE
Envisat 4.0 22:01:14 36° SW 22:02:26 43° W 22:07:16 10° NNW
Resurs 01 Rocket 3.9 22:15:42 18° WSW 22:16:52 20° W 22:20:07 10° NW
FALCON 9 R/B 3.3 22:13:21 10° W 22:15:43 35° SW 22:15:43 35° SW
ATLAS 2AS CENTAUR R/B 2.9 22:16:13 10° NNW 22:23:48 79° N 22:23:48 79° N
H-2A R/B 4.4 22:28:13 14° N 22:28:13 14° N 22:28:59 10° N
